Location: Pedholt
(56.0260°N, 10.2097°E)
Time: 00:16:54
(UTC+00:00)

A-11 Canister half - Pass Details

Date: 02 August 2021
Orbit: 1515 x 1685 km, 47.2° (Epoch: 19 September)

Event Time Altitude Azimuth Distance (km) Brightness Sun altitude
Rises 14:27:01 0° 186° (S) 4,763 12.0 38.7°
Reaches altitude 10° 14:31:21 10° 170° (S) 3,814 11.4 38.1°
Maximum altitude 14:37:16 18° 131° (SE) 3,248 10.7 37.4°
Drops below altitude 10° 14:43:18 10° 93° (E) 3,904 10.8 36.6°
Sets 14:47:47 0° 77° (ENE) 4,918 11.2 36.1°
